| time (UTC) | temp F | wind direction | speed knots | gust knots | rain 1hr in | rain 24hr in | rain mn in | humidity % | barometer mb |
| 20260505090120 | 59 | 0 | 1.7 | 3.5 | 0.00 | 0.02 | 0.01 | 67 | 1020.1 |
| 20260505084615 | 60 | 0 | 0.9 | 3.5 | 0.00 | 0.02 | 0.01 | 66 | 1019.9 |
| 20260505083112 | 60 | 189 | 0.0 | 2.6 | 0.00 | 0.02 | 0.01 | 64 | 1019.7 |
| 20260505081611 | 62 | 0 | 1.7 | 3.5 | 0.00 | 0.02 | 0.01 | 62 | 1019.5 |
| 20260505080105 | 62 | 0 | 1.7 | 5.2 | 0.00 | 0.02 | 0.01 | 60 | 1019.2 |
| 20260505074559 | 64 | 0 | 1.7 | 4.3 | 0.00 | 0.02 | 0.01 | 56 | 1019.1 |
| 20260505073059 | 66 | 0 | 1.7 | 5.2 | 0.00 | 0.02 | 0.01 | 50 | 1018.8 |
| 20260505071555 | 68 | 281 | 0.9 | 3.5 | 0.00 | 0.02 | 0.01 | 49 | 1018.6 |
| 20260505070113 | 70 | 280 | 1.7 | 6.1 | 0.00 | 0.02 | 0.01 | 45 | 1018.4 |
| 20260505064545 | 72 | 271 | 3.5 | 7.0 | 0.00 | 0.02 | 0.01 | 42 | 1018.2 |
| 20260505063043 | 73 | 0 | 2.6 | 7.0 | 0.00 | 0.02 | 0.01 | 42 | 1018.0 |
| 20260505061539 | 73 | 0 | 3.5 | 9.6 | 0.00 | 0.02 | 0.01 | 43 | 1018.0 |
| 20260505060036 | 74 | 0 | 2.6 | 7.0 | 0.00 | 0.02 | 0.01 | 40 | 1017.9 |
| 20260505054530 | 74 | 0 | 2.6 | 7.8 | 0.00 | 0.02 | 0.01 | 41 | 1017.8 |
| 20260505053030 | 74 | 0 | 4.3 | 8.7 | 0.00 | 0.02 | 0.01 | 40 | 1017.8 |
| 20260505051529 | 74 | 0 | 3.5 | 8.7 | 0.00 | 0.02 | 0.01 | 40 | 1017.7 |
| 20260505041524 | 72 | 0 | 4.3 | 10.4 | 0.00 | 0.02 | 0.01 | 43 | 1017.1 |
| 20260505040025 | 72 | 0 | 4.3 | 9.6 | 0.00 | 0.02 | 0.01 | 42 | 1017.1 |
| 20260505034519 | 73 | 231 | 2.6 | 7.8 | 0.00 | 0.02 | 0.01 | 42 | 1017.0 |
| 20260505033019 | 73 | 270 | 4.3 | 10.4 | 0.00 | 0.02 | 0.01 | 41 | 1017.0 |
| 20260505031516 | 73 | 0 | 4.3 | 12.2 | 0.00 | 0.03 | 0.01 | 44 | 1017.2 |
| 20260505030015 | 72 | 0 | 2.6 | 8.7 | 0.00 | 0.04 | 0.01 | 45 | 1017.3 |
| 20260505024520 | 71 | 254 | 3.5 | 11.3 | 0.00 | 0.05 | 0.01 | 49 | 1017.2 |
| 20260505023014 | 71 | 276 | 3.5 | 7.8 | 0.00 | 0.05 | 0.01 | 49 | 1017.4 |
| 20260505021506 | 70 | 257 | 4.3 | 10.4 | 0.00 | 0.05 | 0.01 | 51 | 1017.7 |
| 20260505020000 | 69 | 238 | 6.1 | 11.3 | 0.00 | 0.05 | 0.01 | 54 | 1017.9 |
| 20260505014457 | 69 | 234 | 4.3 | 9.6 | 0.00 | 0.05 | 0.01 | 54 | 1017.9 |
| 20260505013001 | 68 | 257 | 3.5 | 11.3 | 0.00 | 0.06 | 0.01 | 56 | 1018.1 |
| 20260505011456 | 67 | 277 | 4.3 | 10.4 | 0.00 | 0.06 | 0.01 | 61 | 1018.3 |
| 20260505005953 | 66 | 0 | 5.2 | 11.3 | 0.00 | 0.06 | 0.01 | 58 | 1018.6 |
| 20260505004455 | 66 | 277 | 5.2 | 12.2 | 0.00 | 0.07 | 0.01 | 59 | 1018.9 |
| 20260505002950 | 65 | 0 | 7.0 | 12.2 | 0.00 | 0.08 | 0.01 | 59 | 1018.9 |
| 20260505001449 | 65 | 0 | 7.0 | 12.2 | 0.00 | 0.10 | 0.01 | 62 | 1019.0 |
| 20260504235949 | 64 | 0 | 4.3 | 13.0 | 0.00 | 0.13 | 0.01 | 62 | 1019.3 |
| 20260504234444 | 63 | 0 | 4.3 | 9.6 | 0.00 | 0.16 | 0.01 | 63 | 1019.1 |
| 20260504232950 | 62 | 263 | 7.0 | 17.4 | 0.00 | 0.20 | 0.01 | 65 | 1019.0 |
| 20260504231443 | 61 | 278 | 11.3 | 17.4 | 0.00 | 0.28 | 0.01 | 69 | 1018.5 |
| 20260504225941 | 60 | 267 | 9.6 | 15.6 | 0.00 | 0.35 | 0.01 | 71 | 1019.0 |
| 20260504224439 | 58 | 244 | 8.7 | 13.9 | 0.00 | 0.38 | 0.01 | 79 | 1018.9 |
| 20260504222935 | 53 | 258 | 4.3 | 13.0 | 0.01 | 0.39 | 0.01 | 95 | 1019.0 |
| 20260504221446 | 50 | 169 | 0.0 | 0.0 | 0.01 | 0.39 | 0.01 | 94 | 1019.0 |
| 20260504215916 | 49 | 169 | 0.0 | 1.7 | 0.01 | 0.39 | 0.01 | 94 | 1018.9 |
| 20260504214412 | 48 | 169 | 1.7 | 4.3 | 0.01 | 0.40 | 0.01 | 93 | 1018.7 |
| 20260504212917 | 47 | 0 | 0.0 | 2.6 | 0.00 | 0.39 | 0.00 | 93 | 1018.7 |
| 20260504211417 | 46 | 0 | 0.0 | 0.0 | 0.00 | 0.39 | 0.00 | 92 | 1018.3 |
| 20260504205916 | 46 | 0 | 0.0 | 0.0 | 0.00 | 0.39 | 0.00 | 92 | 1017.8 |
| 20260504204416 | 46 | 0 | 0.0 | 1.7 | 0.00 | 0.39 | 0.00 | 92 | 1017.4 |
| 20260504202917 | 46 | 0 | 0.9 | 2.6 | 0.00 | 0.39 | 0.00 | 92 | 1017.3 |
| 20260504201416 | 47 | 0 | 0.0 | 2.6 | 0.00 | 0.39 | 0.00 | 92 | 1017.0 |
| 20260504195917 | 47 | 0 | 0.0 | 1.7 | 0.00 | 0.39 | 0.00 | 92 | 1017.1 |
| 20260504194411 | 47 | 0 | 0.9 | 2.6 | 0.00 | 0.39 | 0.00 | 91 | 1016.9 |
| 20260504192912 | 47 | 0 | 0.9 | 2.6 | 0.00 | 0.39 | 0.00 | 92 | 1016.9 |
| 20260504191414 | 48 | 0 | 0.0 | 1.7 | 0.00 | 0.39 | 0.00 | 91 | 1016.8 |
| 20260504185916 | 48 | 0 | 0.0 | 1.7 | 0.00 | 0.39 | 0.00 | 91 | 1016.5 |
| 20260504182909 | 49 | 165 | 0.9 | 2.6 | 0.00 | 0.39 | 0.00 | 92 | 1016.3 |
| 20260504181416 | 49 | 0 | 0.9 | 1.7 | 0.00 | 0.39 | 0.00 | 92 | 1016.3 |
| 20260504175911 | 50 | 0 | 0.0 | 1.7 | 0.00 | 0.39 | 0.00 | 91 | 1016.5 |
| 20260504174410 | 50 | 0 | 0.0 | 2.6 | 0.00 | 0.39 | 0.00 | 92 | 1016.5 |
| 20260504172911 | 51 | 0 | 0.0 | 1.7 | 0.00 | 0.39 | 0.00 | 91 | 1016.5 |
| 20260504171416 | 51 | 0 | 0.0 | 0.0 | 0.00 | 0.39 | 0.00 | 91 | 1016.4 |
| 20260504141323 | 57 | 205 | 0.9 | 2.6 | 0.00 | 0.39 | 0.00 | 91 | 1016.9 |